Home > Time Zones > World Clock > Weather > Cuba > Havana > Past weeks

Flag for Cuba Weather past 2 weeks in Havana, Cuba

Now
81 °F

Partly sunny.


Feels Like: 84 °F
Forecast: 78 / 88 °F
Wind: 12 mph from East

Location: Aeropuerto Jose Marti - Rancho-Boyeros - Habana

Current Time: May 24, 2015 at 10:00:37 AM

Latest Report: May 24, 2015 at 8:55 AM


Visibility: 6 mi

Pressure: 30.12 "Hg

Humidity: 70%

Dew point: 70 °F

Location of HavanaLocation

Historic Weather in Havana — Graph

°F

Havana temperature yesterday

Maximum temperature yesterday: 91 °F (at 12:55 PM)
Minimum temperature yesterday: 72 °F (at 5:55 AM)
Average temperature yesterday: 81 °F

Past Weeks' High & Low Weather Summary

 TemperatureHumidityPressure
High91 °F (May 16, 2:55 PM)89% (May 13, 7:55 AM)30.15 "Hg (May 13, 7:55 AM)
Low66 °F (May 20, 6:55 AM)34% (May 16, 2:55 PM)29.98 "Hg (May 20, 4:55 AM)
Average79 °F70%30.07 "Hg
* Reported May 9 8:55 AM — May 24 8:55 AM, Havana, Weather by CustomWeather, © 2015

Note: Actual official high and low records may vary slightly from our data, if they occured in-between our weather recording intervals... More about our weather records

Advertising

Havana weather history for previous 24 hours

 ConditionsComfort  
Time TempWeatherWind HumidityBarometerVisibility
8:55 AM
Sun, May 24
81 °FPartly sunny.12 mph70%30.12 "Hg6 mi
7:55 AM77 °FPassing clouds.6 mph79%30.12 "Hg6 mi
6:55 AM73 °FPassing clouds.3 mph83%30.09 "Hg6 mi
5:55 AM73 °FClear.5 mph83%30.09 "Hg6 mi
4:55 AM73 °FClear.5 mph83%30.07 "Hg6 mi
3:55 AM75 °FClear.5 mph83%30.07 "Hg6 mi
2:55 AM73 °FClear.5 mph89%30.07 "Hg6 mi
1:55 AM75 °FClear.5 mph83%30.09 "Hg6 mi
12:55 AM77 °FClear.6 mph79%30.12 "Hg6 mi
11:55 PM
Sat, May 23
77 °FClear.8 mph79%30.12 "Hg6 mi
10:55 PM79 °FClear.8 mph74%30.12 "Hg6 mi
9:55 PM79 °FPassing clouds.10 mph74%30.09 "Hg6 mi
8:55 PM79 °FPassing clouds.14 mph70%30.09 "Hg6 mi
7:55 PM81 °FPassing clouds.16 mph66%30.09 "Hg6 mi
6:55 PM84 °FPassing clouds.17 mph55%30.07 "Hg6 mi
5:55 PM86 °FPassing clouds.14 mph49%30.07 "Hg6 mi
4:55 PM88 °FScattered clouds.14 mph52%30.09 "Hg6 mi
3:55 PM88 °FPassing clouds.18 mph55%30.09 "Hg6 mi
2:55 PM90 °FScattered clouds.17 mph52%30.12 "Hg6 mi
1:55 PM88 °FScattered clouds.15 mph55%30.12 "Hg6 mi
12:55 PM91 °FPartly sunny.10 mph41%30.15 "Hg6 mi
11:55 AM88 °FScattered clouds.9 mph49%30.15 "Hg6 mi
10:55 AM86 °FPassing clouds.10 mph46%30.15 "Hg6 mi
Weather by CustomWeather, © 2015

See weather overviewHow to use our weather pages